Regional Weather Roundup
Issued by NWS

Home | Current Version | Previous Version | Graphics & Text | Print | Product List | Glossary Off
Versions: 1 2 3 4 5 6 7 8 9 10 11 12 13 14 15 16 17 18 19 20 21 22 23 24 25 26 27 28 29 30 31 32 33 34 35 36 37 38 39 40 41 42 43 44 45 46 47 48 49 50

000
ASUS43 KMKX 260000
RWRWI

WISCONSIN REGIONAL WEATHER ROUNDUP
NATIONAL WEATHER SERVICE MILWAUKEE/SULLIVAN WI
700 PM CDT MON SEP 25 2017

NOTE: "FAIR" INDICATES FEW OR NO CLOUDS BELOW 12,000 FEET WITH NO
SIGNIFICANT WEATHER AND/OR OBSTRUCTIONS TO VISIBILITY.

WIZ001-002-006>008-014>016-023>028-260100-
NORTHWEST WISCONSIN

CITY           SKY/WX    TMP DP  RH WIND       PRES   REMARKS
SUPERIOR ARPT  CLOUDY    59  55  86 N3        30.01R
ASHLAND        HVY RAIN  57  56  96 N7        30.00F FOG
6HR MIN TEMP:  57; 6HR MAX TEMP:  66; 6HR PCP:  0.97;

HAYWARD        LGT RAIN  57  55  93 N6        30.00S
6HR MIN TEMP:  57; 6HR MAX TEMP:  65; 6HR PCP:  0.44;

SIREN          CLOUDY    58  55  88 N7        30.00S
CUMBERLAND     CLOUDY    57  55  94 N8        29.98S
RICE LAKE      CLOUDY    60  58  93 NW5       29.99R
CHETEK         CLOUDY    62  61  97 N8G16     29.96R
LADYSMITH      CLOUDY    65  63  93 N10       29.96R
EAU CLAIRE     NOT AVBL
MENOMONIE      CLOUDY    66  61  85 NW9       29.96R
NEW RICHMOND   CLOUDY    59  57  94 N7        29.99R
OSCEOLA        CLOUDY    59  59 100 N6        30.01S
$$

WIZ003>005-009-010-017-018-260100-
NORTH CENTRAL WISCONSIN

CITY           SKY/WX    TMP DP  RH WIND       PRES   REMARKS
MANITOWISH WTR NOT AVBL
ARBOR VITAE    CLOUDY    65  64  94 NW6       29.93R
WOODRUFF       CLOUDY    65  64  94 NW6       29.93R
RHINELANDER    MOCLDY    72  65  78 N3        29.94R
6HR MIN TEMP:  72; 6HR MAX TEMP:  84;

EAGLE RIVER    CLOUDY    70  62  76 NE7       29.93R
LAND O LAKES   CLOUDY    66  64  93 N6        29.97R
PHILLIPS       CLOUDY    64  64 100 NW5       29.87F
6HR MIN TEMP:  64; 6HR MAX TEMP:  81; 6HR PCP:  0.70;

TOMAHAWK       DRIZZLE   71  63  76 CALM      29.91S
MEDFORD        MOCLDY    70  65  85 W3        29.94R
MERRILL        LGT RAIN  78  66  67 SW8       29.91S HX  80
$$

WIZ029-030-035-036-043>047-260100-
CENTRAL WISCONSIN

CITY           SKY/WX    TMP DP  RH WIND       PRES   REMARKS
WAUSAU         MOCLDY    76  64  66 W9        29.91R
6HR MIN TEMP:  76; 6HR MAX TEMP:  86;

MOSINEE        PTCLDY    73  64  73 SW8       29.94R
MARSHFIELD     CLOUDY    70  61  73 W6        29.93R
6HR MIN TEMP:  70; 6HR MAX TEMP:  86; 6HR PCP: TRACE;

STEVENS POINT  CLOUDY    74  60  60 W7        29.93R
WAUPACA        PTCLDY    80  65  59 CALM      29.90S HX  82
WAUTOMA        MOCLDY    75  64  68 W3        29.92R
6HR MIN TEMP:  75; 6HR MAX TEMP:  89;

WISC RAPIDS    MOCLDY    72  61  68 SW3       29.94R
6HR MIN TEMP:  72; 6HR MAX TEMP:  89;

CAMP DOUGLAS   NOT AVBL
$$

WIZ011>013-019>022-031-037>040-048>050-260100-
NORTHEAST WISCONSIN

CITY           SKY/WX    TMP DP  RH WIND       PRES   REMARKS
ANTIGO         LGT RAIN  70  63  80 SE12      29.93S
SHAWANO        PTCLDY    79  65  61 CALM      29.90S HX  81
OCONTO         CLEAR     77  64  64 S5        29.91S
STURGEON BAY   CLEAR     73  62  68 S12       29.93S
6HR MIN TEMP:  73; 6HR MAX TEMP:  84;

GREEN BAY      CLEAR     76  65  68 S6        29.91S
6HR MIN TEMP:  76; 6HR MAX TEMP:  90;

MANITOWOC      CLEAR     72  65  78 S6        29.93F
6HR MIN TEMP:  72; 6HR MAX TEMP:  80;

APPLETON       PTCLDY    79  61  53 SE10      29.91R HX  80
CLINTONVILLE   PTCLDY    77  63  61 SE3       29.89F
OSHKOSH        CLEAR     78  63  59 SE7       29.90S HX  80
6HR MIN TEMP:  78; 6HR MAX TEMP:  88;

$$

WIZ032>034-041-042-053>061-260100-
SOUTHWEST WISCONSIN

CITY           SKY/WX    TMP DP  RH WIND       PRES   REMARKS
LA CROSSE      CLOUDY    72  67  84 SW5       29.92R
6HR MIN TEMP:  68; 6HR MAX TEMP:  88; 6HR PCP:  0.50;

SPARTA         CLOUDY    66  65  96 CALM      29.93S
VIROQUA        CLOUDY    67  64  91 SE6       29.94F
BOSCOBEL       LGT RAIN  68  66  93 E5        29.93F
6HR MIN TEMP:  67; 6HR MAX TEMP:  93; 6HR PCP:  0.15;

PRAIRIE DU CHI LGT RAIN  68  65  90 N6        29.92F
PLATTEVILLE    CLEAR     73  65  77 NE3       29.95R
$$

WIZ056-057-062-063-064-067-068-260100-
SOUTH CENTRAL WISCONSIN

CITY           SKY/WX    TMP DP  RH WIND       PRES   REMARKS
REEDSBURG      LGT RAIN  70  68  94 W5        29.94R
BARABOO/DELLS  CLOUDY    72  63  73 W9        29.93R
LONE ROCK      NOT AVBL
MINERAL POINT  PTCLDY    72  63  73 N8        29.93S
MADISON        PTCLDY    78  62  57 S3        29.90S HX  80
6HR MIN TEMP:  78; 6HR MAX TEMP:  90;

MIDDLETON      CLEAR     83  59  44 CALM      29.91R HX  83
WATERTOWN      CLEAR     81  61  49 SE8       29.91R HX  82
MONROE         CLEAR     81  55  41 S5        29.92R HX  80
JANESVILLE     PTCLDY    84  55  37 S8        29.90S HX  83
$$

WIZ051-052-058>065-066-070>072-260100-
SOUTHEAST WISCONSIN

CITY           SKY/WX    TMP DP  RH WIND       PRES   REMARKS
MILWAUKEE      PTCLDY    80  60  50 S7        29.93S HX  81
6HR MIN TEMP:  80; 6HR MAX TEMP:  87;

WAUKESHA       CLEAR     77  55  47 SE6       29.95S
MILWAUKEE/TIMM PTCLDY    81  50  34 S6        29.94S HX  80
RACINE         CLEAR     78  62  57 S9        29.95S HX  80
6HR MIN TEMP:  78; 6HR MAX TEMP:  86;

BURLINGTON     CLEAR     80  58  47 SE7       29.93S HX  80
KENOSHA        CLEAR     78  59  51 SE6       29.94S
6HR MIN TEMP:  78; 6HR MAX TEMP:  90;

FOND DU LAC    CLEAR     78  60  53 SE8       29.91S
6HR MIN TEMP:  78; 6HR MAX TEMP:  89;

SHEBOYGAN      CLEAR     73  66  78 S5        29.93F
6HR MIN TEMP:  73; 6HR MAX TEMP:  85;

WEST BEND        N/A     77  55  47 SE6       29.94S
JUNEAU         CLEAR     79  62  56 SE6       29.93R HX  80
$$

LSZ147-162-260100-
LAKE SUPERIOR

STATION/POSITION TIME  TEMP    WIND        PRES    WAVE
                       AIR SEA DIR/SP/G            HT/PER
                 (UTC) (F)     (DEG/KT/KT) (MB)    (FT/S)
W MID LAKE BUOY  2250   59 57   20/  4/  4 1014.9R   0
DEVILS ISLAND    2300   61     290/  4/  5 1015.7R
SAXON HARBOR     2340   60     360/  9/ 13 1014.9S
$$

LMZ867-665-643>646-260100-
LAKE MICHIGAN

STATION/POSITION TIME  TEMP    WIND        PRES    WAVE
                       AIR SEA DIR/SP/G            HT/PER
                 (UTC) (F)     (DEG/KT/KT) (MB)    (FT/S)
S GREEN BAY BUOY 2200   77 72  130/  8/ 10 1012.7
N MID LAKE BUOY  2250   69 68  190/  8/  8 1014.0F   1/ 4
NORTHPORT PIER   2340   74     170/  4/  8 1013.2S
KEWAUNEE LAKESHO 2330   68     180/  8/  9 1012.9R
SHEBOYGAN LAKESH 2300   72     170/  9/ 10 1013.2F
PORT WASHINGTON  2330   73     190/  1/  5 1014.2F
ATWATER BUOY     2209   67 62  200/  6/  8 1014.0R
MILWAUKEE LAKESH 2330   70     150/ 11/ 12   N/A
S MID LAKE BUOY  2250   74 72  140/  4/  4 1014.0R   1
KENOSHA   LAKESH 2300   76     170/  8/  9 1013.2
$$

TC  - TEMPERATURE IN CELSIUS
VSB - VISIBILITY IN STATUTE MILES
WCI - WIND CHILL INDEX
HX  - HEAT INDEX





USA.gov is the U.S. government's official web portal to all federal, state and local government web resources and services.